owner,sensor,date,latitude,longitude,vertical_datum,sea_water_practical_salinity,qcFlag 
TABS,ioos:station:wmo:42043:1,2009-01-01T00:00:00Z,28.9818,-94.9186,2.0,29.83,11111222 
TABS,ioos:station:wmo:42043:1,2009-01-01T00:30:00Z,28.9818,-94.9186,2.0,30.75,11111222 
TABS,ioos:station:wmo:42043:1,2009-01-01T01:00:00Z,28.9818,-94.9186,2.0,30.65,11111222 
TABS,ioos:station:wmo:42043:1,2009-01-01T01:30:00Z,28.9818,-94.9186,2.0,30.61,11111222 
TABS,ioos:station:wmo:42043:1,2009-01-01T02:00:00Z,28.9818,-94.9186,2.0,30.52,11111222 
TABS,ioos:station:wmo:42043:1,2009-01-01T02:30:00Z,28.9818,-94.9186,2.0,30.59,11111222 
TABS,ioos:station:wmo:42043:1,2009-01-01T03:00:00Z,28.9818,-94.9186,2.0,30.46,11111222 
TABS,ioos:station:wmo:42043:1,2009-01-01T03:30:00Z,28.9818,-94.9186,2.0,30.69,11111222 
TABS,ioos:station:wmo:42043:1,2009-01-01T04:00:00Z,28.9818,-94.9186,2.0,30.57,11111222 
TABS,ioos:station:wmo:42043:1,2009-01-01T04:30:00Z,28.9818,-94.9186,2.0,30.54,11111222 
TABS,ioos:station:wmo:42043:1,2009-01-01T05:00:00Z,28.9818,-94.9186,2.0,30.77,11111222 
TABS,ioos:station:wmo:42043:1,2009-01-01T05:30:00Z,28.9818,-94.9186,2.0,30.67,11111222 
TABS,ioos:station:wmo:42043:1,2009-01-01T06:00:00Z,28.9818,-94.9186,2.0,30.78,11111222 
TABS,ioos:station:wmo:42043:1,2009-01-01T06:30:00Z,28.9818,-94.9186,2.0,30.76,11111222 
TABS,ioos:station:wmo:42043:1,2009-01-01T07:00:00Z,28.9818,-94.9186,2.0,30.86,11111222 
TABS,ioos:station:wmo:42043:1,2009-01-01T07:30:00Z,28.9818,-94.9186,2.0,30.81,11111222 
TABS,ioos:station:wmo:42043:1,2009-01-01T08:00:00Z,28.9818,-94.9186,2.0,30.74,11111222 
TABS,ioos:station:wmo:42043:1,2009-01-01T08:30:00Z,28.9818,-94.9186,2.0,30.68,11111222 
TABS,ioos:station:wmo:42043:1,2009-01-01T09:00:00Z,28.9818,-94.9186,2.0,30.48,11111222 
TABS,ioos:station:wmo:42043:1,2009-01-01T09:30:00Z,28.9818,-94.9186,2.0,30.44,11111222 
TABS,ioos:station:wmo:42043:1,2009-01-01T10:00:00Z,28.9818,-94.9186,2.0,30.3,11111222 
TABS,ioos:station:wmo:42043:1,2009-01-01T10:30:00Z,28.9818,-94.9186,2.0,30.37,11111222 
TABS,ioos:station:wmo:42043:1,2009-01-01T11:00:00Z,28.9818,-94.9186,2.0,30.34,11111222 
TABS,ioos:station:wmo:42043:1,2009-01-01T11:30:00Z,28.9818,-94.9186,2.0,30.06,11111222 
TABS,ioos:station:wmo:42043:1,2009-01-01T12:00:00Z,28.9818,-94.9186,2.0,29.63,11111222 
TABS,ioos:station:wmo:42043:1,2009-01-01T12:30:00Z,28.9818,-94.9186,2.0,28.94,11111222 
TABS,ioos:station:wmo:42043:1,2009-01-01T13:00:00Z,28.9818,-94.9186,2.0,28.64,11111222 
TABS,ioos:station:wmo:42043:1,2009-01-01T13:30:00Z,28.9818,-94.9186,2.0,28.56,11111222 
TABS,ioos:station:wmo:42043:1,2009-01-01T14:00:00Z,28.9818,-94.9186,2.0,28.47,11111222 
TABS,ioos:station:wmo:42043:1,2009-01-01T14:30:00Z,28.9818,-94.9186,2.0,28.17,11111222 
TABS,ioos:station:wmo:42043:1,2009-01-01T15:00:00Z,28.9818,-94.9186,2.0,28.19,11111222 
TABS,ioos:station:wmo:42043:1,2009-01-01T15:30:00Z,28.9818,-94.9186,2.0,28.08,11111222 
TABS,ioos:station:wmo:42043:1,2009-01-01T16:00:00Z,28.9818,-94.9186,2.0,28.11,11111222 
TABS,ioos:station:wmo:42043:1,2009-01-01T16:30:00Z,28.9818,-94.9186,2.0,28.19,11111222 
TABS,ioos:station:wmo:42043:1,2009-01-01T17:00:00Z,28.9818,-94.9186,2.0,28.2,11111222 
TABS,ioos:station:wmo:42043:1,2009-01-01T17:30:00Z,28.9818,-94.9186,2.0,28.12,11111222 
TABS,ioos:station:wmo:42043:1,2009-01-01T18:00:00Z,28.9818,-94.9186,2.0,28.17,11111222 
TABS,ioos:station:wmo:42043:1,2009-01-01T18:30:00Z,28.9818,-94.9186,2.0,28.2,11111222 
TABS,ioos:station:wmo:42043:1,2009-01-01T19:00:00Z,28.9818,-94.9186,2.0,28.33,11111222 
TABS,ioos:station:wmo:42043:1,2009-01-01T19:30:00Z,28.9818,-94.9186,2.0,28.3,11111222 
TABS,ioos:station:wmo:42043:1,2009-01-01T20:00:00Z,28.9818,-94.9186,2.0,28.44,11111222 
TABS,ioos:station:wmo:42043:1,2009-01-01T20:30:00Z,28.9818,-94.9186,2.0,28.56,11111222 
TABS,ioos:station:wmo:42043:1,2009-01-01T21:00:00Z,28.9818,-94.9186,2.0,28.63,11111222 
TABS,ioos:station:wmo:42043:1,2009-01-01T21:30:00Z,28.9818,-94.9186,2.0,28.63,11111222 
TABS,ioos:station:wmo:42043:1,2009-01-01T22:00:00Z,28.9818,-94.9186,2.0,28.57,11111222 
TABS,ioos:station:wmo:42043:1,2009-01-01T22:30:00Z,28.9818,-94.9186,2.0,28.68,11111222 
TABS,ioos:station:wmo:42043:1,2009-01-01T23:00:00Z,28.9818,-94.9186,2.0,28.59,11111222 
TABS,ioos:station:wmo:42043:1,2009-01-01T23:30:00Z,28.9818,-94.9186,2.0,28.66,11111222 
TABS,ioos:station:wmo:42043:1,2009-01-02T00:00:00Z,28.9818,-94.9186,2.0,30.87,11111222 
TABS,ioos:station:wmo:42043:1,2009-01-02T00:30:00Z,28.9818,-94.9186,2.0,31.39,11111222 
TABS,ioos:station:wmo:42043:1,2009-01-02T01:00:00Z,28.9818,-94.9186,2.0,31.49,11111222 
TABS,ioos:station:wmo:42043:1,2009-01-02T01:30:00Z,28.9818,-94.9186,2.0,31.37,11111222 
TABS,ioos:station:wmo:42043:1,2009-01-02T02:00:00Z,28.9818,-94.9186,2.0,31.41,11111222 
TABS,ioos:station:wmo:42043:1,2009-01-02T02:30:00Z,28.9818,-94.9186,2.0,31.15,11111222 
TABS,ioos:station:wmo:42043:1,2009-01-02T03:00:00Z,28.9818,-94.9186,2.0,31.25,11111222 
TABS,ioos:station:wmo:42043:1,2009-01-02T03:30:00Z,28.9818,-94.9186,2.0,31.16,11111222 
TABS,ioos:station:wmo:42043:1,2009-01-02T04:00:00Z,28.9818,-94.9186,2.0,31.24,11111222 
TABS,ioos:station:wmo:42043:1,2009-01-02T04:30:00Z,28.9818,-94.9186,2.0,31.09,11111222 
TABS,ioos:station:wmo:42043:1,2009-01-02T05:00:00Z,28.9818,-94.9186,2.0,31.38,11111222 
TABS,ioos:station:wmo:42043:1,2009-01-02T05:30:00Z,28.9818,-94.9186,2.0,31.22,11111222 
TABS,ioos:station:wmo:42043:1,2009-01-02T06:00:00Z,28.9818,-94.9186,2.0,31.26,11111222 
TABS,ioos:station:wmo:42043:1,2009-01-02T06:30:00Z,28.9818,-94.9186,2.0,31.22,11111222 
TABS,ioos:station:wmo:42043:1,2009-01-02T07:00:00Z,28.9818,-94.9186,2.0,31.38,11111222 
TABS,ioos:station:wmo:42043:1,2009-01-02T07:30:00Z,28.9818,-94.9186,2.0,31.37,11111222 
TABS,ioos:station:wmo:42043:1,2009-01-02T08:00:00Z,28.9818,-94.9186,2.0,31.34,11111222 
TABS,ioos:station:wmo:42043:1,2009-01-02T08:30:00Z,28.9818,-94.9186,2.0,31.19,11111222 
TABS,ioos:station:wmo:42043:1,2009-01-02T09:00:00Z,28.9818,-94.9186,2.0,31.18,11111222 
TABS,ioos:station:wmo:42043:1,2009-01-02T09:30:00Z,28.9818,-94.9186,2.0,31.13,11111222 
TABS,ioos:station:wmo:42043:1,2009-01-02T10:00:00Z,28.9818,-94.9186,2.0,31.27,11111222 
TABS,ioos:station:wmo:42043:1,2009-01-02T10:30:00Z,28.9818,-94.9186,2.0,31.32,11111222 
TABS,ioos:station:wmo:42043:1,2009-01-02T11:00:00Z,28.9818,-94.9186,2.0,31.33,11111222 
TABS,ioos:station:wmo:42043:1,2009-01-02T11:30:00Z,28.9818,-94.9186,2.0,31.03,11111222 
TABS,ioos:station:wmo:42043:1,2009-01-02T12:00:00Z,28.9818,-94.9186,2.0,30.92,11111222 
TABS,ioos:station:wmo:42043:1,2009-01-02T12:30:00Z,28.9818,-94.9186,2.0,29.69,11111222 
TABS,ioos:station:wmo:42043:1,2009-01-02T13:00:00Z,28.9818,-94.9186,2.0,29.38,11111222 
TABS,ioos:station:wmo:42043:1,2009-01-02T13:30:00Z,28.9818,-94.9186,2.0,29.54,11111222 
TABS,ioos:station:wmo:42043:1,2009-01-02T14:00:00Z,28.9818,-94.9186,2.0,29.17,11111222 
TABS,ioos:station:wmo:42043:1,2009-01-02T14:30:00Z,28.9818,-94.9186,2.0,29.04,11111222 
TABS,ioos:station:wmo:42043:1,2009-01-02T15:30:00Z,28.9818,-94.9186,2.0,28.88,11111222 
TABS,ioos:station:wmo:42043:1,2009-01-02T16:00:00Z,28.9818,-94.9186,2.0,28.8,11111222 
TABS,ioos:station:wmo:42043:1,2009-01-02T16:30:00Z,28.9818,-94.9186,2.0,28.75,11111222 
TABS,ioos:station:wmo:42043:1,2009-01-02T17:00:00Z,28.9818,-94.9186,2.0,28.81,11111222 
TABS,ioos:station:wmo:42043:1,2009-01-02T17:30:00Z,28.9818,-94.9186,2.0,28.73,11111222 
TABS,ioos:station:wmo:42043:1,2009-01-02T18:00:00Z,28.9818,-94.9186,2.0,28.75,11111222 
TABS,ioos:station:wmo:42043:1,2009-01-02T18:30:00Z,28.9818,-94.9186,2.0,28.7,11111222 
TABS,ioos:station:wmo:42043:1,2009-01-02T19:00:00Z,28.9818,-94.9186,2.0,28.76,11111222 
TABS,ioos:station:wmo:42043:1,2009-01-02T19:30:00Z,28.9818,-94.9186,2.0,28.68,11111222 
TABS,ioos:station:wmo:42043:1,2009-01-02T20:00:00Z,28.9818,-94.9186,2.0,28.63,11111222 
TABS,ioos:station:wmo:42043:1,2009-01-02T20:30:00Z,28.9818,-94.9186,2.0,28.61,11111222 
TABS,ioos:station:wmo:42043:1,2009-01-02T21:00:00Z,28.9818,-94.9186,2.0,28.53,11111222 
TABS,ioos:station:wmo:42043:1,2009-01-02T21:30:00Z,28.9818,-94.9186,2.0,28.59,11111222 
TABS,ioos:station:wmo:42043:1,2009-01-02T22:00:00Z,28.9818,-94.9186,2.0,28.74,11111222 
TABS,ioos:station:wmo:42043:1,2009-01-02T22:30:00Z,28.9818,-94.9186,2.0,28.71,11111222 
TABS,ioos:station:wmo:42043:1,2009-01-02T23:00:00Z,28.9818,-94.9186,2.0,28.72,11111222 
TABS,ioos:station:wmo:42043:1,2009-01-02T23:30:00Z,28.9818,-94.9186,2.0,28.78,11111222 
TABS,ioos:station:wmo:42043:1,2009-01-03T00:00:00Z,28.9818,-94.9186,2.0,30.12,11111222 
TABS,ioos:station:wmo:42043:1,2009-01-03T00:30:00Z,28.9818,-94.9186,2.0,30.57,11111222 
TABS,ioos:station:wmo:42043:1,2009-01-03T01:00:00Z,28.9818,-94.9186,2.0,30.68,11111222 
TABS,ioos:station:wmo:42043:1,2009-01-03T01:30:00Z,28.9818,-94.9186,2.0,30.77,11111222 
TABS,ioos:station:wmo:42043:1,2009-01-03T02:00:00Z,28.9818,-94.9186,2.0,30.88,11111222 
TABS,ioos:station:wmo:42043:1,2009-01-03T02:30:00Z,28.9818,-94.9186,2.0,30.78,11111222 
TABS,ioos:station:wmo:42043:1,2009-01-03T03:30:00Z,28.9818,-94.9186,2.0,30.81,11111222 
TABS,ioos:station:wmo:42043:1,2009-01-03T04:00:00Z,28.9818,-94.9186,2.0,30.73,11111222 
TABS,ioos:station:wmo:42043:1,2009-01-03T04:30:00Z,28.9818,-94.9186,2.0,30.78,11111222 
TABS,ioos:station:wmo:42043:1,2009-01-03T05:00:00Z,28.9818,-94.9186,2.0,30.79,11111222 
TABS,ioos:station:wmo:42043:1,2009-01-03T05:30:00Z,28.9818,-94.9186,2.0,30.68,11111222 
TABS,ioos:station:wmo:42043:1,2009-01-03T06:00:00Z,28.9818,-94.9186,2.0,30.66,11111222 
TABS,ioos:station:wmo:42043:1,2009-01-03T06:30:00Z,28.9818,-94.9186,2.0,30.77,11111222 
TABS,ioos:station:wmo:42043:1,2009-01-03T07:00:00Z,28.9818,-94.9186,2.0,30.77,11111222 
TABS,ioos:station:wmo:42043:1,2009-01-03T07:30:00Z,28.9818,-94.9186,2.0,30.55,11111222 
TABS,ioos:station:wmo:42043:1,2009-01-03T08:00:00Z,28.9818,-94.9186,2.0,30.71,11111222 
TABS,ioos:station:wmo:42043:1,2009-01-03T08:30:00Z,28.9818,-94.9186,2.0,30.64,11111222 
TABS,ioos:station:wmo:42043:1,2009-01-03T09:00:00Z,28.9818,-94.9186,2.0,30.73,11111222 
TABS,ioos:station:wmo:42043:1,2009-01-03T10:00:00Z,28.9818,-94.9186,2.0,30.62,11111222 
TABS,ioos:station:wmo:42043:1,2009-01-03T10:30:00Z,28.9818,-94.9186,2.0,30.49,11111222 
TABS,ioos:station:wmo:42043:1,2009-01-03T11:00:00Z,28.9818,-94.9186,2.0,30.07,11111222 
TABS,ioos:station:wmo:42043:1,2009-01-03T11:30:00Z,28.9818,-94.9186,2.0,29.79,11111222 
TABS,ioos:station:wmo:42043:1,2009-01-03T12:00:00Z,28.9818,-94.9186,2.0,29.51,11111222 
TABS,ioos:station:wmo:42043:1,2009-01-03T12:30:00Z,28.9818,-94.9186,2.0,28.8,11111222 
TABS,ioos:station:wmo:42043:1,2009-01-03T13:00:00Z,28.9818,-94.9186,2.0,28.45,11111222 
TABS,ioos:station:wmo:42043:1,2009-01-03T13:30:00Z,28.9818,-94.9186,2.0,28.45,11111222 
TABS,ioos:station:wmo:42043:1,2009-01-03T14:00:00Z,28.9818,-94.9186,2.0,28.4,11111222 
TABS,ioos:station:wmo:42043:1,2009-01-03T14:30:00Z,28.9818,-94.9186,2.0,28.45,11111222 
TABS,ioos:station:wmo:42043:1,2009-01-03T15:00:00Z,28.9818,-94.9186,2.0,28.51,11111222 
TABS,ioos:station:wmo:42043:1,2009-01-03T15:30:00Z,28.9818,-94.9186,2.0,28.45,11111222 
TABS,ioos:station:wmo:42043:1,2009-01-03T16:00:00Z,28.9818,-94.9186,2.0,28.51,11111222 
TABS,ioos:station:wmo:42043:1,2009-01-03T16:30:00Z,28.9818,-94.9186,2.0,28.45,11111222 
TABS,ioos:station:wmo:42043:1,2009-01-03T17:00:00Z,28.9818,-94.9186,2.0,28.51,11111222 
TABS,ioos:station:wmo:42043:1,2009-01-03T17:30:00Z,28.9818,-94.9186,2.0,28.47,11111222 
TABS,ioos:station:wmo:42043:1,2009-01-03T18:00:00Z,28.9818,-94.9186,2.0,28.38,11111222 
TABS,ioos:station:wmo:42043:1,2009-01-03T18:30:00Z,28.9818,-94.9186,2.0,28.36,11111222 
TABS,ioos:station:wmo:42043:1,2009-01-03T19:00:00Z,28.9818,-94.9186,2.0,28.32,11111222 
TABS,ioos:station:wmo:42043:1,2009-01-03T19:30:00Z,28.9818,-94.9186,2.0,28.25,11111222 
TABS,ioos:station:wmo:42043:1,2009-01-03T20:00:00Z,28.9818,-94.9186,2.0,28.23,11111222 
TABS,ioos:station:wmo:42043:1,2009-01-03T20:30:00Z,28.9818,-94.9186,2.0,28.29,11111222 
TABS,ioos:station:wmo:42043:1,2009-01-03T21:00:00Z,28.9818,-94.9186,2.0,28.26,11111222 
TABS,ioos:station:wmo:42043:1,2009-01-03T21:30:00Z,28.9818,-94.9186,2.0,28.27,11111222 
TABS,ioos:station:wmo:42043:1,2009-01-03T22:00:00Z,28.9818,-94.9186,2.0,28.31,11111222 
TABS,ioos:station:wmo:42043:1,2009-01-03T22:30:00Z,28.9818,-94.9186,2.0,28.2,11111222 
TABS,ioos:station:wmo:42043:1,2009-01-03T23:00:00Z,28.9818,-94.9186,2.0,28.32,11111222 
TABS,ioos:station:wmo:42043:1,2009-01-03T23:30:00Z,28.9818,-94.9186,2.0,28.48,11111222 
TABS,ioos:station:wmo:42043:1,2009-01-04T00:00:00Z,28.9818,-94.9186,2.0,29.47,11111222 
TABS,ioos:station:wmo:42043:1,2009-01-04T00:30:00Z,28.9818,-94.9186,2.0,29.99,11111222 
TABS,ioos:station:wmo:42043:1,2009-01-04T01:00:00Z,28.9818,-94.9186,2.0,30.22,11111222 
TABS,ioos:station:wmo:42043:1,2009-01-04T01:30:00Z,28.9818,-94.9186,2.0,30.17,11111222 
TABS,ioos:station:wmo:42043:1,2009-01-04T02:00:00Z,28.9818,-94.9186,2.0,30.06,11111222 
TABS,ioos:station:wmo:42043:1,2009-01-04T02:30:00Z,28.9818,-94.9186,2.0,30.14,11111222 
TABS,ioos:station:wmo:42043:1,2009-01-04T03:00:00Z,28.9818,-94.9186,2.0,30.14,11111222 
TABS,ioos:station:wmo:42043:1,2009-01-04T03:30:00Z,28.9818,-94.9186,2.0,30.2,11111222 
TABS,ioos:station:wmo:42043:1,2009-01-04T04:00:00Z,28.9818,-94.9186,2.0,30.31,11111222 
TABS,ioos:station:wmo:42043:1,2009-01-04T04:30:00Z,28.9818,-94.9186,2.0,30.19,11111222 
TABS,ioos:station:wmo:42043:1,2009-01-04T05:00:00Z,28.9818,-94.9186,2.0,30.28,11111222 
TABS,ioos:station:wmo:42043:1,2009-01-04T05:30:00Z,28.9818,-94.9186,2.0,30.3,11111222 
TABS,ioos:station:wmo:42043:1,2009-01-04T06:00:00Z,28.9818,-94.9186,2.0,30.12,11111222 
TABS,ioos:station:wmo:42043:1,2009-01-04T06:30:00Z,28.9818,-94.9186,2.0,30.1,11111222 
TABS,ioos:station:wmo:42043:1,2009-01-04T07:00:00Z,28.9818,-94.9186,2.0,30.18,11111222 
TABS,ioos:station:wmo:42043:1,2009-01-04T07:30:00Z,28.9818,-94.9186,2.0,30.09,11111222 
TABS,ioos:station:wmo:42043:1,2009-01-04T08:00:00Z,28.9818,-94.9186,2.0,29.48,11111222 
TABS,ioos:station:wmo:42043:1,2009-01-04T08:30:00Z,28.9818,-94.9186,2.0,29.46,11111222 
TABS,ioos:station:wmo:42043:1,2009-01-04T09:00:00Z,28.9818,-94.9186,2.0,29.27,11111222 
TABS,ioos:station:wmo:42043:1,2009-01-04T09:30:00Z,28.9818,-94.9186,2.0,29.41,11111222 
TABS,ioos:station:wmo:42043:1,2009-01-04T10:00:00Z,28.9818,-94.9186,2.0,29.07,11111222 
TABS,ioos:station:wmo:42043:1,2009-01-04T10:30:00Z,28.9818,-94.9186,2.0,28.98,11111222 
TABS,ioos:station:wmo:42043:1,2009-01-04T11:00:00Z,28.9818,-94.9186,2.0,28.93,11111222 
TABS,ioos:station:wmo:42043:1,2009-01-04T11:30:00Z,28.9818,-94.9186,2.0,28.8,11111222 
TABS,ioos:station:wmo:42043:1,2009-01-04T12:00:00Z,28.9818,-94.9186,2.0,28.8,11111222 
TABS,ioos:station:wmo:42043:1,2009-01-04T12:30:00Z,28.9818,-94.9186,2.0,27.96,11111222 
TABS,ioos:station:wmo:42043:1,2009-01-04T13:00:00Z,28.9818,-94.9186,2.0,27.88,11111222 
TABS,ioos:station:wmo:42043:1,2009-01-04T13:30:00Z,28.9818,-94.9186,2.0,27.62,11111222 
TABS,ioos:station:wmo:42043:1,2009-01-04T14:00:00Z,28.9818,-94.9186,2.0,27.69,11111222 
TABS,ioos:station:wmo:42043:1,2009-01-04T14:30:00Z,28.9818,-94.9186,2.0,27.78,11111222 
TABS,ioos:station:wmo:42043:1,2009-01-04T15:00:00Z,28.9818,-94.9186,2.0,27.94,11111222 
TABS,ioos:station:wmo:42043:1,2009-01-04T15:30:00Z,28.9818,-94.9186,2.0,27.83,11111222 
TABS,ioos:station:wmo:42043:1,2009-01-04T16:00:00Z,28.9818,-94.9186,2.0,27.9,11111222 
TABS,ioos:station:wmo:42043:1,2009-01-04T16:30:00Z,28.9818,-94.9186,2.0,27.77,11111222 
TABS,ioos:station:wmo:42043:1,2009-01-04T17:00:00Z,28.9818,-94.9186,2.0,25.95,11111222 
TABS,ioos:station:wmo:42043:1,2009-01-04T17:30:00Z,28.9818,-94.9186,2.0,26.23,11111222 
TABS,ioos:station:wmo:42043:1,2009-01-04T18:00:00Z,28.9818,-94.9186,2.0,26.34,11111222 
TABS,ioos:station:wmo:42043:1,2009-01-04T18:30:00Z,28.9818,-94.9186,2.0,26.35,11111222 
TABS,ioos:station:wmo:42043:1,2009-01-04T19:00:00Z,28.9818,-94.9186,2.0,26.41,11111222 
TABS,ioos:station:wmo:42043:1,2009-01-04T19:30:00Z,28.9818,-94.9186,2.0,26.63,11111222 
TABS,ioos:station:wmo:42043:1,2009-01-04T20:00:00Z,28.9818,-94.9186,2.0,26.77,11111222 
TABS,ioos:station:wmo:42043:1,2009-01-04T20:30:00Z,28.9818,-94.9186,2.0,26.76,11111222 
TABS,ioos:station:wmo:42043:1,2009-01-04T21:00:00Z,28.9818,-94.9186,2.0,26.93,11111222 
TABS,ioos:station:wmo:42043:1,2009-01-04T21:30:00Z,28.9818,-94.9186,2.0,26.71,11111222 
TABS,ioos:station:wmo:42043:1,2009-01-04T22:00:00Z,28.9818,-94.9186,2.0,26.74,11111222 
TABS,ioos:station:wmo:42043:1,2009-01-04T22:30:00Z,28.9818,-94.9186,2.0,26.82,11111222 
TABS,ioos:station:wmo:42043:1,2009-01-04T23:00:00Z,28.9818,-94.9186,2.0,26.61,11111222 
TABS,ioos:station:wmo:42043:1,2009-01-04T23:30:00Z,28.9818,-94.9186,2.0,26.76,11111222 
TABS,ioos:station:wmo:42043:1,2009-01-05T00:00:00Z,28.9818,-94.9186,2.0,28.35,11111222 
TABS,ioos:station:wmo:42043:1,2009-01-05T00:30:00Z,28.9818,-94.9186,2.0,28.81,11111222 
TABS,ioos:station:wmo:42043:1,2009-01-05T01:00:00Z,28.9818,-94.9186,2.0,28.11,11111222 
TABS,ioos:station:wmo:42043:1,2009-01-05T01:30:00Z,28.9818,-94.9186,2.0,27.2,11111222 
TABS,ioos:station:wmo:42043:1,2009-01-05T02:00:00Z,28.9818,-94.9186,2.0,27.04,11111222 
TABS,ioos:station:wmo:42043:1,2009-01-05T02:30:00Z,28.9818,-94.9186,2.0,27.09,11111222 
TABS,ioos:station:wmo:42043:1,2009-01-05T03:00:00Z,28.9818,-94.9186,2.0,27.24,11111222 
TABS,ioos:station:wmo:42043:1,2009-01-05T03:30:00Z,28.9818,-94.9186,2.0,27.8,11111222 
TABS,ioos:station:wmo:42043:1,2009-01-05T04:00:00Z,28.9818,-94.9186,2.0,27.85,11111222 
TABS,ioos:station:wmo:42043:1,2009-01-05T04:30:00Z,28.9818,-94.9186,2.0,27.88,11111222 
TABS,ioos:station:wmo:42043:1,2009-01-05T05:00:00Z,28.9818,-94.9186,2.0,27.77,11111222 
TABS,ioos:station:wmo:42043:1,2009-01-05T05:30:00Z,28.9818,-94.9186,2.0,27.92,11111222 
TABS,ioos:station:wmo:42043:1,2009-01-05T06:00:00Z,28.9818,-94.9186,2.0,28.21,11111222 
TABS,ioos:station:wmo:42043:1,2009-01-05T06:30:00Z,28.9818,-94.9186,2.0,28.48,11111222 
TABS,ioos:station:wmo:42043:1,2009-01-05T07:00:00Z,28.9818,-94.9186,2.0,28.51,11111222 
TABS,ioos:station:wmo:42043:1,2009-01-05T07:30:00Z,28.9818,-94.9186,2.0,28.77,11111222 
TABS,ioos:station:wmo:42043:1,2009-01-05T08:00:00Z,28.9818,-94.9186,2.0,28.79,11111222 
TABS,ioos:station:wmo:42043:1,2009-01-05T08:30:00Z,28.9818,-94.9186,2.0,28.75,11111222 
TABS,ioos:station:wmo:42043:1,2009-01-05T09:00:00Z,28.9818,-94.9186,2.0,28.84,11111222 
TABS,ioos:station:wmo:42043:1,2009-01-05T09:30:00Z,28.9818,-94.9186,2.0,28.89,11111222 
TABS,ioos:station:wmo:42043:1,2009-01-05T10:00:00Z,28.9818,-94.9186,2.0,28.76,11111222 
TABS,ioos:station:wmo:42043:1,2009-01-05T10:30:00Z,28.9818,-94.9186,2.0,28.76,11111222 
TABS,ioos:station:wmo:42043:1,2009-01-05T11:00:00Z,28.9818,-94.9186,2.0,28.52,11111222 
TABS,ioos:station:wmo:42043:1,2009-01-05T11:30:00Z,28.9818,-94.9186,2.0,28.4,11111222 
TABS,ioos:station:wmo:42043:1,2009-01-05T12:00:00Z,28.9818,-94.9186,2.0,28.37,11111222 
TABS,ioos:station:wmo:42043:1,2009-01-05T12:30:00Z,28.9818,-94.9186,2.0,27.92,11111222 
TABS,ioos:station:wmo:42043:1,2009-01-05T13:00:00Z,28.9818,-94.9186,2.0,27.66,11111222 
TABS,ioos:station:wmo:42043:1,2009-01-05T13:30:00Z,28.9818,-94.9186,2.0,27.49,11111222 
TABS,ioos:station:wmo:42043:1,2009-01-05T14:00:00Z,28.9818,-94.9186,2.0,27.5,11111222 
TABS,ioos:station:wmo:42043:1,2009-01-05T14:30:00Z,28.9818,-94.9186,2.0,27.52,11111222 
TABS,ioos:station:wmo:42043:1,2009-01-05T15:00:00Z,28.9818,-94.9186,2.0,27.57,11111222 
TABS,ioos:station:wmo:42043:1,2009-01-05T15:30:00Z,28.9818,-94.9186,2.0,27.69,11111222 
TABS,ioos:station:wmo:42043:1,2009-01-05T16:00:00Z,28.9818,-94.9186,2.0,27.73,11111222 
TABS,ioos:station:wmo:42043:1,2009-01-05T16:30:00Z,28.9818,-94.9186,2.0,27.57,11111222 
TABS,ioos:station:wmo:42043:1,2009-01-05T17:00:00Z,28.9818,-94.9186,2.0,27.59,11111222 
TABS,ioos:station:wmo:42043:1,2009-01-05T17:30:00Z,28.9818,-94.9186,2.0,27.55,11111222 
TABS,ioos:station:wmo:42043:1,2009-01-05T18:00:00Z,28.9818,-94.9186,2.0,27.64,11111222 
TABS,ioos:station:wmo:42043:1,2009-01-05T18:30:00Z,28.9818,-94.9186,2.0,27.64,11111222 
TABS,ioos:station:wmo:42043:1,2009-01-05T19:00:00Z,28.9818,-94.9186,2.0,27.69,11111222 
TABS,ioos:station:wmo:42043:1,2009-01-05T19:30:00Z,28.9818,-94.9186,2.0,27.68,11111222 
TABS,ioos:station:wmo:42043:1,2009-01-05T20:00:00Z,28.9818,-94.9186,2.0,25.18,11111222 
TABS,ioos:station:wmo:42043:1,2009-01-05T20:30:00Z,28.9818,-94.9186,2.0,27.76,11111222 
TABS,ioos:station:wmo:42043:1,2009-01-05T21:00:00Z,28.9818,-94.9186,2.0,27.84,11111222 
TABS,ioos:station:wmo:42043:1,2009-01-05T21:30:00Z,28.9818,-94.9186,2.0,27.8,11111222 
TABS,ioos:station:wmo:42043:1,2009-01-05T22:00:00Z,28.9818,-94.9186,2.0,27.75,11111222 
TABS,ioos:station:wmo:42043:1,2009-01-05T22:30:00Z,28.9818,-94.9186,2.0,27.5,11111222 
TABS,ioos:station:wmo:42043:1,2009-01-05T23:00:00Z,28.9818,-94.9186,2.0,27.69,11111222 
TABS,ioos:station:wmo:42043:1,2009-01-05T23:30:00Z,28.9818,-94.9186,2.0,27.91,11111222 
TABS,ioos:station:wmo:42043:1,2009-01-06T00:00:00Z,28.9818,-94.9186,2.0,28.94,11111222 
TABS,ioos:station:wmo:42043:1,2009-01-06T00:30:00Z,28.9818,-94.9186,2.0,29.65,11111222 
TABS,ioos:station:wmo:42043:1,2009-01-06T01:00:00Z,28.9818,-94.9186,2.0,29.53,11111222 
TABS,ioos:station:wmo:42043:1,2009-01-06T01:30:00Z,28.9818,-94.9186,2.0,29.59,11111222 
TABS,ioos:station:wmo:42043:1,2009-01-06T02:00:00Z,28.9818,-94.9186,2.0,29.59,11111222 
TABS,ioos:station:wmo:42043:1,2009-01-06T02:30:00Z,28.9818,-94.9186,2.0,29.79,11111222 
TABS,ioos:station:wmo:42043:1,2009-01-06T03:00:00Z,28.9818,-94.9186,2.0,29.54,11111222 
TABS,ioos:station:wmo:42043:1,2009-01-06T03:30:00Z,28.9818,-94.9186,2.0,29.34,11111222 
TABS,ioos:station:wmo:42043:1,2009-01-06T04:00:00Z,28.9818,-94.9186,2.0,29.44,11111222 
TABS,ioos:station:wmo:42043:1,2009-01-06T04:30:00Z,28.9818,-94.9186,2.0,29.32,11111222 
TABS,ioos:station:wmo:42043:1,2009-01-06T05:00:00Z,28.9818,-94.9186,2.0,28.99,11111222 
TABS,ioos:station:wmo:42043:1,2009-01-06T05:30:00Z,28.9818,-94.9186,2.0,29.1,11111222 
TABS,ioos:station:wmo:42043:1,2009-01-06T06:00:00Z,28.9818,-94.9186,2.0,29.14,11111222 
TABS,ioos:station:wmo:42043:1,2009-01-06T06:30:00Z,28.9818,-94.9186,2.0,29.1,11111222 
TABS,ioos:station:wmo:42043:1,2009-01-06T07:00:00Z,28.9818,-94.9186,2.0,29.17,11111222 
TABS,ioos:station:wmo:42043:1,2009-01-06T07:30:00Z,28.9818,-94.9186,2.0,28.97,11111222 
TABS,ioos:station:wmo:42043:1,2009-01-06T08:00:00Z,28.9818,-94.9186,2.0,29.15,11111222 
TABS,ioos:station:wmo:42043:1,2009-01-06T08:30:00Z,28.9818,-94.9186,2.0,28.95,11111222 
TABS,ioos:station:wmo:42043:1,2009-01-06T09:00:00Z,28.9818,-94.9186,2.0,28.9,11111222 
TABS,ioos:station:wmo:42043:1,2009-01-06T09:30:00Z,28.9818,-94.9186,2.0,28.7,11111222 
TABS,ioos:station:wmo:42043:1,2009-01-06T10:00:00Z,28.9818,-94.9186,2.0,28.69,11111222 
TABS,ioos:station:wmo:42043:1,2009-01-06T10:30:00Z,28.9818,-94.9186,2.0,28.49,11111222 
TABS,ioos:station:wmo:42043:1,2009-01-06T11:00:00Z,28.9818,-94.9186,2.0,28.51,11111222 
TABS,ioos:station:wmo:42043:1,2009-01-06T11:30:00Z,28.9818,-94.9186,2.0,28.5,11111222 
TABS,ioos:station:wmo:42043:1,2009-01-06T12:00:00Z,28.9818,-94.9186,2.0,28.37,11111222 
TABS,ioos:station:wmo:42043:1,2009-01-06T12:30:00Z,28.9818,-94.9186,2.0,27.64,11111222 
TABS,ioos:station:wmo:42043:1,2009-01-06T13:00:00Z,28.9818,-94.9186,2.0,27.42,11111222 
TABS,ioos:station:wmo:42043:1,2009-01-06T13:30:00Z,28.9818,-94.9186,2.0,27.25,11111222 
TABS,ioos:station:wmo:42043:1,2009-01-06T14:00:00Z,28.9818,-94.9186,2.0,27.32,11111222 
TABS,ioos:station:wmo:42043:1,2009-01-06T14:30:00Z,28.9818,-94.9186,2.0,27.32,11111222 
TABS,ioos:station:wmo:42043:1,2009-01-06T15:00:00Z,28.9818,-94.9186,2.0,27.42,11111222 
TABS,ioos:station:wmo:42043:1,2009-01-06T15:30:00Z,28.9818,-94.9186,2.0,27.47,11111222 
TABS,ioos:station:wmo:42043:1,2009-01-06T16:00:00Z,28.9818,-94.9186,2.0,27.46,11111222 
TABS,ioos:station:wmo:42043:1,2009-01-06T16:30:00Z,28.9818,-94.9186,2.0,27.45,11111222 
TABS,ioos:station:wmo:42043:1,2009-01-06T17:00:00Z,28.9818,-94.9186,2.0,27.5,11111222 